Year,Month,Day,Hour,Minute,Value (Times are PST for temperature in C)
2015,02,17,00,00,5.40
2015,02,17,00,01,5.30
2015,02,17,00,02,5.30
2015,02,17,00,03,5.20
2015,02,17,00,04,5.20
2015,02,17,00,05,5.20
2015,02,17,00,06,5.10
2015,02,17,00,07,5.10
2015,02,17,00,08,5.10
2015,02,17,00,09,5.00
2015,02,17,00,10,5.00
2015,02,17,00,11,4.90
2015,02,17,00,12,4.90
2015,02,17,00,13,4.80
2015,02,17,00,14,4.80
2015,02,17,00,15,4.80
2015,02,17,00,16,4.70
2015,02,17,00,17,4.70
2015,02,17,00,18,4.60
2015,02,17,00,19,4.60
2015,02,17,00,20,4.60
2015,02,17,00,21,4.50
2015,02,17,00,22,4.50
2015,02,17,00,23,4.40
2015,02,17,00,24,4.40
2015,02,17,00,25,4.30
2015,02,17,00,26,4.30
2015,02,17,00,27,4.30
2015,02,17,00,28,4.20
2015,02,17,00,29,4.20
2015,02,17,00,30,4.10
2015,02,17,00,31,4.10
2015,02,17,00,32,4.10
2015,02,17,00,33,4.10
2015,02,17,00,34,4.00
2015,02,17,00,35,4.00
2015,02,17,00,36,4.00
2015,02,17,00,37,3.90
2015,02,17,00,38,3.90
2015,02,17,00,39,3.90
2015,02,17,00,40,3.90
2015,02,17,00,41,3.90
2015,02,17,00,42,3.90
2015,02,17,00,43,3.90
2015,02,17,00,44,3.90
2015,02,17,00,45,3.90
2015,02,17,00,46,3.80
2015,02,17,00,47,3.80
2015,02,17,00,48,3.80
2015,02,17,00,49,3.70
2015,02,17,00,50,3.70
2015,02,17,00,51,3.70
2015,02,17,00,52,3.60
2015,02,17,00,53,3.60
2015,02,17,00,54,3.60
2015,02,17,00,55,3.50
2015,02,17,00,56,3.50
2015,02,17,00,57,3.50
2015,02,17,00,58,3.50
2015,02,17,00,59,3.40
2015,02,17,01,00,3.40
2015,02,17,01,01,3.40
2015,02,17,01,02,3.40
2015,02,17,01,03,3.40
2015,02,17,01,04,3.40
2015,02,17,01,05,3.50
2015,02,17,01,06,3.50
2015,02,17,01,07,3.50
2015,02,17,01,08,3.50
2015,02,17,01,09,3.60
2015,02,17,01,10,3.60
2015,02,17,01,11,3.60
2015,02,17,01,12,3.60
2015,02,17,01,13,3.60
2015,02,17,01,14,3.60
2015,02,17,01,15,3.60
2015,02,17,01,16,3.60
2015,02,17,01,17,3.70
2015,02,17,01,18,3.70
2015,02,17,01,19,3.70
2015,02,17,01,20,3.70
2015,02,17,01,21,3.80
2015,02,17,01,22,3.80
2015,02,17,01,23,3.90
2015,02,17,01,24,3.90
2015,02,17,01,25,3.90
2015,02,17,01,26,4.00
2015,02,17,01,27,4.00
2015,02,17,01,28,4.10
2015,02,17,01,29,4.10
2015,02,17,01,30,4.10
2015,02,17,01,31,4.20
2015,02,17,01,32,4.20
2015,02,17,01,33,4.30
2015,02,17,01,34,4.40
2015,02,17,01,35,4.40
2015,02,17,01,36,4.60
2015,02,17,01,37,4.60
2015,02,17,01,38,4.70
2015,02,17,01,39,4.80
2015,02,17,01,40,4.90
2015,02,17,01,41,4.90
2015,02,17,01,42,5.00
2015,02,17,01,43,5.10
2015,02,17,01,44,5.10
2015,02,17,01,45,5.10
2015,02,17,01,46,5.20
2015,02,17,01,47,5.20
2015,02,17,01,48,5.20
2015,02,17,01,49,5.20
2015,02,17,01,50,5.20
2015,02,17,01,51,5.20
2015,02,17,01,52,5.20
2015,02,17,01,53,5.20
2015,02,17,01,54,5.20
2015,02,17,01,55,5.20
2015,02,17,01,56,5.20
2015,02,17,01,57,5.20
2015,02,17,01,58,5.20
2015,02,17,01,59,5.20
2015,02,17,02,00,5.10
2015,02,17,02,01,5.10
2015,02,17,02,02,5.10
2015,02,17,02,03,5.20
2015,02,17,02,04,5.20
2015,02,17,02,05,5.20
2015,02,17,02,06,5.30
2015,02,17,02,07,5.30
2015,02,17,02,08,5.40
2015,02,17,02,09,5.40
2015,02,17,02,10,5.50
2015,02,17,02,11,5.60
2015,02,17,02,12,5.60
2015,02,17,02,13,5.70
2015,02,17,02,14,5.80
2015,02,17,02,15,5.80
2015,02,17,02,16,5.90
2015,02,17,02,17,5.90
2015,02,17,02,18,5.90
2015,02,17,02,19,6.00
2015,02,17,02,20,6.00
2015,02,17,02,21,6.10
2015,02,17,02,22,6.10
2015,02,17,02,23,6.10
2015,02,17,02,24,6.20
2015,02,17,02,25,6.20
2015,02,17,02,26,6.20
2015,02,17,02,27,6.20
2015,02,17,02,28,6.20
2015,02,17,02,29,6.30
2015,02,17,02,30,6.30
2015,02,17,02,31,6.30
2015,02,17,02,32,6.40
2015,02,17,02,33,6.40
2015,02,17,02,34,6.40
2015,02,17,02,35,6.40
2015,02,17,02,36,6.50
2015,02,17,02,37,6.50
2015,02,17,02,38,6.50
2015,02,17,02,39,6.60
2015,02,17,02,40,6.60
2015,02,17,02,41,6.50
2015,02,17,02,42,6.60
2015,02,17,02,43,6.50
2015,02,17,02,44,6.50
2015,02,17,02,45,6.50
2015,02,17,02,46,6.50
2015,02,17,02,47,6.40
2015,02,17,02,48,6.40
2015,02,17,02,49,6.40
2015,02,17,02,50,6.40
2015,02,17,02,51,6.40
2015,02,17,02,52,6.40
2015,02,17,02,53,6.30
2015,02,17,02,54,6.30
2015,02,17,02,55,6.20
2015,02,17,02,56,6.10
2015,02,17,02,57,6.00
2015,02,17,02,58,5.90
2015,02,17,02,59,5.80
2015,02,17,03,00,5.70
2015,02,17,03,01,5.60
2015,02,17,03,02,5.60
2015,02,17,03,06,5.20
2015,02,17,03,07,5.20
2015,02,17,03,08,5.10
2015,02,17,03,09,5.00
2015,02,17,03,10,5.00
2015,02,17,03,11,4.90
2015,02,17,03,12,4.90
2015,02,17,03,13,4.80
2015,02,17,03,14,4.80
2015,02,17,03,15,4.80
2015,02,17,03,16,4.70
2015,02,17,03,17,4.70
2015,02,17,03,18,4.70
2015,02,17,03,19,4.70
2015,02,17,03,20,4.80
2015,02,17,03,21,4.80
2015,02,17,03,22,4.90
2015,02,17,03,23,4.90
2015,02,17,03,24,4.90
2015,02,17,03,25,5.00
2015,02,17,03,26,5.00
2015,02,17,03,27,5.00
2015,02,17,03,28,5.00
2015,02,17,03,29,5.00
2015,02,17,03,30,5.10
2015,02,17,03,31,5.10
2015,02,17,03,32,5.10
2015,02,17,03,33,5.10
2015,02,17,03,34,5.10
2015,02,17,03,35,5.10
2015,02,17,03,36,5.10
2015,02,17,03,37,5.20
2015,02,17,03,38,5.20
2015,02,17,03,39,5.30
2015,02,17,03,40,5.30
2015,02,17,03,41,5.30
2015,02,17,03,42,5.30
2015,02,17,03,43,5.30
2015,02,17,03,44,5.30
2015,02,17,03,45,5.30
2015,02,17,03,46,5.30
2015,02,17,03,47,5.30
2015,02,17,03,48,5.30
2015,02,17,03,49,5.30
2015,02,17,03,50,5.30
2015,02,17,03,51,5.30
2015,02,17,03,52,5.30
2015,02,17,03,53,5.30
2015,02,17,03,54,5.20
2015,02,17,03,55,5.10
2015,02,17,03,56,5.10
2015,02,17,03,57,5.10
2015,02,17,03,58,5.10
2015,02,17,03,59,5.10
2015,02,17,04,00,5.10
2015,02,17,04,01,5.10
2015,02,17,04,02,5.10
2015,02,17,04,03,5.20
2015,02,17,04,04,5.40
2015,02,17,04,05,5.50
2015,02,17,04,06,5.60
2015,02,17,04,07,5.60
2015,02,17,04,08,5.70
2015,02,17,04,09,5.80
2015,02,17,04,10,5.80
2015,02,17,04,11,5.80
2015,02,17,04,12,5.80
2015,02,17,04,13,5.80
2015,02,17,04,14,5.80
2015,02,17,04,15,5.80
2015,02,17,04,16,5.80
2015,02,17,04,17,5.80
2015,02,17,04,18,5.80
2015,02,17,04,19,5.80
2015,02,17,04,20,5.70
2015,02,17,04,21,5.70
2015,02,17,04,22,5.70
2015,02,17,04,23,5.70
2015,02,17,04,24,5.80
2015,02,17,04,25,5.80
2015,02,17,04,26,5.80
2015,02,17,04,27,5.80
2015,02,17,04,28,5.80
2015,02,17,04,29,5.80
2015,02,17,04,30,5.80
2015,02,17,04,31,5.80
2015,02,17,04,32,5.80
2015,02,17,04,33,5.90
2015,02,17,04,34,5.90
2015,02,17,04,35,5.90
2015,02,17,04,36,5.90
2015,02,17,04,37,5.90
2015,02,17,04,38,5.90
2015,02,17,04,39,6.00
2015,02,17,04,40,6.10
2015,02,17,04,41,6.10
2015,02,17,04,42,6.10
2015,02,17,04,43,6.10
2015,02,17,04,44,6.20
2015,02,17,04,45,6.20
2015,02,17,04,46,6.20
2015,02,17,04,47,6.10
2015,02,17,04,48,6.10
2015,02,17,04,49,6.10
2015,02,17,04,50,6.10
2015,02,17,04,51,6.10
2015,02,17,04,52,6.00
2015,02,17,04,53,6.00
2015,02,17,04,54,5.90
2015,02,17,04,55,5.90
2015,02,17,04,56,5.90
2015,02,17,04,57,5.90
2015,02,17,04,58,5.90
2015,02,17,04,59,5.90
2015,02,17,05,00,5.90
2015,02,17,05,01,5.90
2015,02,17,05,02,6.00
2015,02,17,05,03,6.00
2015,02,17,05,04,6.00
2015,02,17,05,05,6.00
2015,02,17,05,06,6.00
2015,02,17,05,07,6.00
2015,02,17,05,08,6.00
2015,02,17,05,09,5.90
2015,02,17,05,10,5.90
2015,02,17,05,11,5.90
2015,02,17,05,12,5.90
2015,02,17,05,13,5.90
2015,02,17,05,14,5.80
2015,02,17,05,15,5.80
2015,02,17,05,16,5.80
2015,02,17,05,17,5.80
2015,02,17,05,18,5.90
2015,02,17,05,19,5.90
2015,02,17,05,20,5.90
2015,02,17,05,21,5.90
2015,02,17,05,22,5.90
2015,02,17,05,23,5.90
2015,02,17,05,24,5.90
2015,02,17,05,25,5.90
2015,02,17,05,26,5.90
2015,02,17,05,27,5.90
2015,02,17,05,28,5.80
2015,02,17,05,29,5.80
2015,02,17,05,30,5.80
2015,02,17,05,31,5.80
2015,02,17,05,32,5.80
2015,02,17,05,33,5.80
2015,02,17,05,34,5.80
2015,02,17,05,35,5.80
2015,02,17,05,36,5.80
2015,02,17,05,37,5.80
2015,02,17,05,38,5.80
2015,02,17,05,39,5.80
2015,02,17,05,40,5.70
2015,02,17,05,41,5.70
2015,02,17,05,42,5.70
2015,02,17,05,43,5.70
2015,02,17,05,44,5.70
2015,02,17,05,45,5.70
2015,02,17,05,46,5.70
2015,02,17,05,47,5.70
2015,02,17,05,48,5.70
2015,02,17,05,49,5.70
2015,02,17,05,50,5.70
2015,02,17,05,51,5.60
2015,02,17,05,52,5.70
2015,02,17,05,53,5.70
2015,02,17,05,54,5.70
2015,02,17,05,55,5.70
2015,02,17,05,56,5.60
2015,02,17,05,57,5.60
2015,02,17,05,58,5.60
2015,02,17,05,59,5.60
2015,02,17,06,00,5.70
2015,02,17,06,01,5.70
2015,02,17,06,02,5.70
2015,02,17,06,03,5.70
2015,02,17,06,04,5.60
2015,02,17,06,05,5.60
2015,02,17,06,06,5.60
2015,02,17,06,07,5.60
2015,02,17,06,08,5.60
2015,02,17,06,09,5.60
2015,02,17,06,10,5.60
2015,02,17,06,11,5.60
2015,02,17,06,12,5.60
2015,02,17,06,13,5.60
2015,02,17,06,14,5.70
2015,02,17,06,15,5.70
2015,02,17,06,16,5.70
2015,02,17,06,17,5.60
2015,02,17,06,18,5.60
2015,02,17,06,19,5.60
2015,02,17,06,20,5.60
2015,02,17,06,21,5.60
2015,02,17,06,22,5.60
2015,02,17,06,23,5.50
2015,02,17,06,24,5.50
2015,02,17,06,25,5.50
2015,02,17,06,26,5.50
2015,02,17,06,27,5.50
2015,02,17,06,28,5.40
2015,02,17,06,29,5.40
2015,02,17,06,30,5.40
2015,02,17,06,31,5.40
2015,02,17,06,32,5.40
2015,02,17,06,33,5.40
2015,02,17,06,34,5.40
2015,02,17,06,35,5.40
2015,02,17,06,36,5.40
2015,02,17,06,37,5.50
2015,02,17,06,38,5.50
2015,02,17,06,39,5.50
2015,02,17,06,40,5.50
2015,02,17,06,41,5.60
2015,02,17,06,42,5.60
2015,02,17,06,43,5.60
2015,02,17,06,44,5.60
2015,02,17,06,45,5.60
2015,02,17,06,46,5.60
2015,02,17,06,47,5.60
2015,02,17,06,48,5.50
2015,02,17,06,49,5.50
2015,02,17,06,50,5.40
2015,02,17,06,51,5.40
2015,02,17,06,52,5.30
2015,02,17,06,53,5.30
2015,02,17,06,54,5.30
2015,02,17,06,55,5.20
2015,02,17,06,56,5.20
2015,02,17,06,57,5.20
2015,02,17,06,58,5.10
2015,02,17,06,59,5.10
2015,02,17,07,00,5.10
2015,02,17,07,01,5.10
2015,02,17,07,02,5.10
2015,02,17,07,03,5.10
2015,02,17,07,04,5.20
2015,02,17,07,05,5.20
2015,02,17,07,06,5.20
2015,02,17,07,07,5.20
2015,02,17,07,08,5.20
2015,02,17,07,09,5.20
2015,02,17,07,10,5.20
2015,02,17,07,11,5.10
2015,02,17,07,12,5.10
2015,02,17,07,13,5.10
2015,02,17,07,14,5.10
2015,02,17,07,15,5.00
2015,02,17,07,16,5.00
2015,02,17,07,17,4.90
2015,02,17,07,18,4.90
2015,02,17,07,19,4.90
2015,02,17,07,20,4.90
2015,02,17,07,21,4.80
2015,02,17,07,22,4.80
2015,02,17,07,23,4.80
2015,02,17,07,24,4.70
2015,02,17,07,25,4.70
2015,02,17,07,26,4.70
2015,02,17,07,27,4.70
2015,02,17,07,28,4.60
2015,02,17,07,29,4.60
2015,02,17,07,30,4.60
2015,02,17,07,31,4.60
2015,02,17,07,32,4.60
2015,02,17,07,33,4.60
2015,02,17,07,34,4.60
2015,02,17,07,35,4.60
2015,02,17,07,36,4.60
2015,02,17,07,37,4.60
2015,02,17,07,38,4.60
2015,02,17,07,39,4.60
2015,02,17,07,40,4.60
2015,02,17,07,41,4.60
2015,02,17,07,42,4.50
2015,02,17,07,43,4.50
2015,02,17,07,44,4.50
2015,02,17,07,45,4.50
2015,02,17,07,46,4.40
2015,02,17,07,47,4.40
2015,02,17,07,48,4.40
2015,02,17,07,49,4.40
2015,02,17,07,50,4.30
2015,02,17,07,51,4.30
2015,02,17,07,52,4.30
2015,02,17,07,53,4.30
2015,02,17,07,54,4.30
2015,02,17,07,55,4.30
2015,02,17,07,56,4.30
2015,02,17,07,57,4.40
2015,02,17,07,58,4.40
2015,02,17,07,59,4.50
2015,02,17,08,00,4.50
2015,02,17,08,01,4.60
2015,02,17,08,02,4.70
2015,02,17,08,03,4.80
2015,02,17,08,04,4.90
2015,02,17,08,05,5.00
2015,02,17,08,06,5.10
2015,02,17,08,07,5.20
2015,02,17,08,08,5.30
2015,02,17,08,09,5.30
2015,02,17,08,10,5.40
2015,02,17,08,11,5.50
2015,02,17,08,12,5.50
2015,02,17,08,13,5.60
2015,02,17,08,14,5.70
2015,02,17,08,15,5.70
2015,02,17,08,16,5.80
2015,02,17,08,17,5.90
2015,02,17,08,18,6.00
2015,02,17,08,19,6.10
2015,02,17,08,20,6.20
2015,02,17,08,21,6.20
2015,02,17,08,22,6.30
2015,02,17,08,23,6.40
2015,02,17,08,24,6.40
2015,02,17,08,25,6.40
2015,02,17,08,26,6.50
2015,02,17,08,27,6.50
2015,02,17,08,28,6.60
2015,02,17,08,29,6.60
2015,02,17,08,30,6.60
2015,02,17,08,31,6.70
2015,02,17,08,32,6.70
2015,02,17,08,33,6.80
2015,02,17,08,34,6.90
2015,02,17,08,35,6.90
2015,02,17,08,36,6.90
2015,02,17,08,37,7.00
2015,02,17,08,38,7.10
2015,02,17,08,39,7.10
2015,02,17,08,40,7.20
2015,02,17,08,41,7.20
2015,02,17,08,42,7.30
2015,02,17,08,43,7.40
2015,02,17,08,44,7.50
2015,02,17,08,45,7.60
2015,02,17,08,46,7.70
2015,02,17,08,47,7.80
2015,02,17,08,48,7.90
2015,02,17,08,49,7.90
2015,02,17,08,50,8.00
2015,02,17,08,51,8.00
2015,02,17,08,52,8.10
2015,02,17,08,53,8.10
2015,02,17,08,54,8.10
2015,02,17,08,55,8.00
2015,02,17,08,56,8.00
2015,02,17,08,57,8.00
2015,02,17,08,58,8.00
2015,02,17,08,59,8.00
2015,02,17,09,00,8.10
2015,02,17,09,01,8.10
2015,02,17,09,02,8.10
2015,02,17,09,03,8.20
2015,02,17,09,04,8.20
2015,02,17,09,05,8.20
2015,02,17,09,06,8.30
2015,02,17,09,07,8.40
2015,02,17,09,08,8.40
2015,02,17,09,09,8.50
2015,02,17,09,10,8.50
2015,02,17,09,11,8.60
2015,02,17,09,12,8.80
2015,02,17,09,13,8.80
2015,02,17,09,14,9.00
2015,02,17,09,15,9.10
2015,02,17,09,16,9.20
2015,02,17,09,17,9.30
2015,02,17,09,18,9.30
2015,02,17,09,19,9.40
2015,02,17,09,20,9.50
2015,02,17,09,21,9.50
2015,02,17,09,22,9.60
2015,02,17,09,23,9.70
2015,02,17,09,24,9.80
2015,02,17,09,25,9.80
2015,02,17,09,26,9.90
2015,02,17,09,27,10.00
2015,02,17,09,28,10.10
2015,02,17,09,29,10.10
2015,02,17,09,30,10.20
2015,02,17,09,31,10.20
2015,02,17,09,32,10.30
2015,02,17,09,33,10.30
2015,02,17,09,34,10.30
2015,02,17,09,35,10.30
2015,02,17,09,36,10.40
2015,02,17,09,37,10.40
2015,02,17,09,38,10.50
2015,02,17,09,39,10.50
2015,02,17,09,40,10.60
2015,02,17,09,41,10.60
2015,02,17,09,42,10.70
2015,02,17,09,43,10.70
2015,02,17,09,44,10.70
2015,02,17,09,45,10.70
2015,02,17,09,46,10.80
2015,02,17,09,47,10.80
2015,02,17,09,48,10.80
2015,02,17,09,49,10.80
2015,02,17,09,50,10.80
2015,02,17,09,51,10.80
2015,02,17,09,52,10.80
2015,02,17,09,53,10.80
2015,02,17,09,54,10.80
2015,02,17,09,55,10.80
2015,02,17,09,56,10.80
2015,02,17,09,57,10.90
2015,02,17,09,58,10.90
2015,02,17,09,59,10.90
2015,02,17,10,00,11.00
2015,02,17,10,01,11.00
2015,02,17,10,02,11.00
2015,02,17,10,03,11.00
2015,02,17,10,04,11.00
2015,02,17,10,05,10.90
2015,02,17,10,06,10.90
2015,02,17,10,07,10.90
2015,02,17,10,08,10.90
2015,02,17,10,09,10.90
2015,02,17,10,10,10.90
2015,02,17,10,11,10.90
2015,02,17,10,12,10.90
2015,02,17,10,13,11.00
2015,02,17,10,14,11.00
2015,02,17,10,15,11.00
2015,02,17,10,16,11.00
2015,02,17,10,17,11.10
2015,02,17,10,18,11.10
2015,02,17,10,19,11.10
2015,02,17,10,20,11.20
2015,02,17,10,21,11.20
2015,02,17,10,22,11.10
2015,02,17,10,23,11.10
2015,02,17,10,24,11.10
2015,02,17,10,25,11.00
2015,02,17,10,26,11.00
2015,02,17,10,27,10.90
2015,02,17,10,28,10.90
2015,02,17,10,29,11.00
2015,02,17,10,30,11.00
2015,02,17,10,31,11.00
2015,02,17,10,32,11.00
2015,02,17,10,33,11.00
2015,02,17,10,34,10.90
2015,02,17,10,35,11.00
2015,02,17,10,36,11.00
2015,02,17,10,37,11.00
2015,02,17,10,38,11.10
2015,02,17,10,39,11.20
2015,02,17,10,40,11.20
2015,02,17,10,41,11.30
2015,02,17,10,42,11.30
2015,02,17,10,43,11.40
2015,02,17,10,44,11.40
2015,02,17,10,45,11.40
2015,02,17,10,46,11.40
2015,02,17,10,47,11.40
2015,02,17,10,48,11.50
2015,02,17,10,49,11.50
2015,02,17,10,50,11.60
2015,02,17,10,51,11.50
2015,02,17,10,52,11.50
2015,02,17,10,53,11.40
2015,02,17,10,54,11.30
2015,02,17,10,55,11.20
2015,02,17,10,56,11.20
2015,02,17,10,57,11.20
2015,02,17,10,58,11.20
2015,02,17,10,59,11.30
2015,02,17,11,00,11.30
2015,02,17,11,01,11.30
2015,02,17,11,02,11.40
2015,02,17,11,03,11.40
2015,02,17,11,04,11.50
2015,02,17,11,05,11.40
2015,02,17,11,06,11.50
2015,02,17,11,07,11.50
2015,02,17,11,08,11.50
2015,02,17,11,09,11.60
2015,02,17,11,10,11.60
2015,02,17,11,11,11.70
2015,02,17,11,12,11.70
2015,02,17,11,13,11.70
2015,02,17,11,14,11.70
2015,02,17,11,15,11.80
2015,02,17,11,16,11.80
2015,02,17,11,17,11.90
2015,02,17,11,18,11.90
2015,02,17,11,19,12.00
2015,02,17,11,20,12.00
2015,02,17,11,21,12.10
2015,02,17,11,22,12.10
2015,02,17,11,23,12.00
2015,02,17,11,24,12.00
2015,02,17,11,25,12.10
2015,02,17,11,26,12.10
2015,02,17,11,27,12.10
2015,02,17,11,28,12.10
2015,02,17,11,29,12.10
2015,02,17,11,30,12.10
2015,02,17,11,31,12.10
2015,02,17,11,32,12.10
2015,02,17,11,33,12.10
2015,02,17,11,34,12.20
2015,02,17,11,35,12.30
2015,02,17,11,36,12.30
2015,02,17,11,37,12.40
2015,02,17,11,38,12.30
2015,02,17,11,39,12.20
2015,02,17,11,40,12.20
2015,02,17,11,41,12.20
2015,02,17,11,42,12.30
2015,02,17,11,43,12.30
2015,02,17,11,44,12.30
2015,02,17,11,45,12.30
2015,02,17,11,46,12.30
2015,02,17,11,47,12.40
2015,02,17,11,48,12.40
2015,02,17,11,49,12.50
2015,02,17,11,50,12.50
2015,02,17,11,51,12.50
2015,02,17,11,52,12.50
2015,02,17,11,53,12.50
2015,02,17,11,54,12.50
2015,02,17,11,55,12.60
2015,02,17,11,56,12.70
2015,02,17,11,57,12.70
2015,02,17,11,58,12.70
2015,02,17,11,59,12.70
2015,02,17,12,00,12.60
2015,02,17,12,01,12.60
2015,02,17,12,02,12.60
2015,02,17,12,03,12.60
2015,02,17,12,04,12.60
2015,02,17,12,05,12.60
2015,02,17,12,06,12.60
2015,02,17,12,07,12.50
2015,02,17,12,08,12.50
2015,02,17,12,09,12.40
2015,02,17,12,10,12.40
2015,02,17,12,11,12.40
2015,02,17,12,12,12.40
2015,02,17,12,13,12.40
2015,02,17,12,14,12.40
2015,02,17,12,15,12.40
2015,02,17,12,16,12.40
2015,02,17,12,17,12.40
2015,02,17,12,18,12.40
2015,02,17,12,19,12.40
2015,02,17,12,20,12.40
2015,02,17,12,21,12.40
2015,02,17,12,22,12.50
2015,02,17,12,23,12.50
2015,02,17,12,24,12.60
2015,02,17,12,25,12.70
2015,02,17,12,26,12.70
2015,02,17,12,27,12.70
2015,02,17,12,28,12.70
2015,02,17,12,29,12.80
2015,02,17,12,30,12.80
2015,02,17,12,31,12.90
2015,02,17,12,32,13.00
2015,02,17,12,33,13.00
2015,02,17,12,34,13.10
2015,02,17,12,35,13.10
2015,02,17,12,36,13.00
2015,02,17,12,37,12.90
2015,02,17,12,38,12.80
2015,02,17,12,39,12.80
2015,02,17,12,40,12.80
2015,02,17,12,41,12.80
2015,02,17,12,42,12.90
2015,02,17,12,43,12.80
2015,02,17,12,44,12.80
2015,02,17,12,45,12.80
2015,02,17,12,46,12.70
2015,02,17,12,47,12.70
2015,02,17,12,48,12.70
2015,02,17,12,49,12.70
2015,02,17,12,50,12.70
2015,02,17,12,51,12.70
2015,02,17,12,52,12.60
2015,02,17,12,53,12.60
2015,02,17,12,54,12.60
2015,02,17,12,55,12.70
2015,02,17,12,56,12.80
2015,02,17,12,57,12.80
2015,02,17,12,58,12.80
2015,02,17,12,59,12.80
2015,02,17,13,00,12.80
2015,02,17,13,01,12.80
2015,02,17,13,02,12.80
2015,02,17,13,03,12.80
2015,02,17,13,04,12.80
2015,02,17,13,05,12.80
2015,02,17,13,06,12.80
2015,02,17,13,07,12.80
2015,02,17,13,08,12.80
2015,02,17,13,09,12.80
2015,02,17,13,10,12.80
2015,02,17,13,11,12.80
2015,02,17,13,12,12.80
2015,02,17,13,13,12.90
2015,02,17,13,14,12.90
2015,02,17,13,15,13.00
2015,02,17,13,16,13.10
2015,02,17,13,17,13.20
2015,02,17,13,18,13.30
2015,02,17,13,19,13.40
2015,02,17,13,20,13.50
2015,02,17,13,21,13.50
2015,02,17,13,22,13.50
2015,02,17,13,23,13.50
2015,02,17,13,24,13.50
2015,02,17,13,25,13.60
2015,02,17,13,26,13.60
2015,02,17,13,27,13.60
2015,02,17,13,28,13.60
2015,02,17,13,29,13.50
2015,02,17,13,30,13.50
2015,02,17,13,31,13.50
2015,02,17,13,32,13.50
2015,02,17,13,33,13.50
2015,02,17,13,34,13.40
2015,02,17,13,35,13.40
2015,02,17,13,36,13.50
2015,02,17,13,37,13.50
2015,02,17,13,38,13.50
2015,02,17,13,39,13.50
2015,02,17,13,40,13.50
2015,02,17,13,41,13.40
2015,02,17,13,42,13.40
2015,02,17,13,43,13.30
2015,02,17,13,44,13.30
2015,02,17,13,45,13.30
2015,02,17,13,46,13.30
2015,02,17,13,47,13.30
2015,02,17,13,48,13.40
2015,02,17,13,49,13.40
2015,02,17,13,50,13.50
2015,02,17,13,51,13.50
2015,02,17,13,52,13.50
2015,02,17,13,53,13.60
2015,02,17,13,54,13.60
2015,02,17,13,55,13.60
2015,02,17,13,56,13.60
2015,02,17,13,57,13.60
2015,02,17,13,58,13.70
2015,02,17,13,59,13.80
2015,02,17,14,00,13.80
2015,02,17,14,01,13.80
2015,02,17,14,02,13.80
2015,02,17,14,03,13.80
2015,02,17,14,04,13.80
2015,02,17,14,05,13.80
2015,02,17,14,06,13.80
2015,02,17,14,07,13.80
2015,02,17,14,08,13.90
2015,02,17,14,09,13.90
2015,02,17,14,10,13.90
2015,02,17,14,11,13.90
2015,02,17,14,12,14.00
2015,02,17,14,13,14.10
2015,02,17,14,14,14.10
2015,02,17,14,15,14.10
2015,02,17,14,16,14.10
2015,02,17,14,17,14.00
2015,02,17,14,18,13.90
2015,02,17,14,19,13.90
2015,02,17,14,20,13.90
2015,02,17,14,21,13.90
2015,02,17,14,22,13.90
2015,02,17,14,23,13.90
2015,02,17,14,24,13.90
2015,02,17,14,25,14.00
2015,02,17,14,26,14.00
2015,02,17,14,27,14.00
2015,02,17,14,28,14.00
2015,02,17,14,29,14.00
2015,02,17,14,30,14.00
2015,02,17,14,31,14.00
2015,02,17,14,32,14.10
2015,02,17,14,33,14.10
2015,02,17,14,34,14.10
2015,02,17,14,35,14.10
2015,02,17,14,36,14.10
2015,02,17,14,37,14.00
2015,02,17,14,38,14.00
2015,02,17,14,39,13.90
2015,02,17,14,40,13.90
2015,02,17,14,41,13.90
2015,02,17,14,42,13.90
2015,02,17,14,43,13.90
2015,02,17,14,44,13.90
2015,02,17,14,45,13.90
2015,02,17,14,46,14.00
2015,02,17,14,47,14.00
2015,02,17,14,48,14.00
2015,02,17,14,49,13.90
2015,02,17,14,50,13.90
2015,02,17,14,51,13.90
2015,02,17,14,52,13.90
2015,02,17,14,53,13.90
2015,02,17,14,54,13.80
2015,02,17,14,55,13.80
2015,02,17,14,56,13.80
2015,02,17,14,57,13.80
2015,02,17,14,58,13.80
2015,02,17,14,59,13.80
2015,02,17,15,00,13.80
2015,02,17,15,01,13.80
2015,02,17,15,02,13.80
2015,02,17,15,03,13.80
2015,02,17,15,04,13.90
2015,02,17,15,05,13.90
2015,02,17,15,06,13.80
2015,02,17,15,07,13.80
2015,02,17,15,08,13.90
2015,02,17,15,09,13.90
2015,02,17,15,10,14.00
2015,02,17,15,11,14.10
2015,02,17,15,12,14.10
2015,02,17,15,13,14.20
2015,02,17,15,14,14.20
2015,02,17,15,15,14.20
2015,02,17,15,16,14.20
2015,02,17,15,17,14.20
2015,02,17,15,18,14.10
2015,02,17,15,19,14.10
2015,02,17,15,20,14.00
2015,02,17,15,21,13.90
2015,02,17,15,22,13.90
2015,02,17,15,23,13.80
2015,02,17,15,24,13.70
2015,02,17,15,25,13.70
2015,02,17,15,26,13.60
2015,02,17,15,27,13.60
2015,02,17,15,28,13.50
2015,02,17,15,29,13.40
2015,02,17,15,30,13.40
2015,02,17,15,31,13.30
2015,02,17,15,32,13.30
2015,02,17,15,33,13.30
2015,02,17,15,34,13.30
2015,02,17,15,35,13.30
2015,02,17,15,36,13.30
2015,02,17,15,37,13.30
2015,02,17,15,38,13.30
2015,02,17,15,39,13.30
2015,02,17,15,40,13.30
2015,02,17,15,41,13.30
2015,02,17,15,42,13.30
2015,02,17,15,43,13.30
2015,02,17,15,44,13.20
2015,02,17,15,45,13.20
2015,02,17,15,46,13.10
2015,02,17,15,47,13.10
2015,02,17,15,48,13.20
2015,02,17,15,49,13.20
2015,02,17,15,50,13.10
2015,02,17,15,51,13.10
2015,02,17,15,52,13.10
2015,02,17,15,53,13.10
2015,02,17,15,54,13.10
2015,02,17,15,55,13.10
2015,02,17,15,56,13.10
2015,02,17,15,57,13.10
2015,02,17,15,58,13.10
2015,02,17,15,59,13.10
2015,02,17,16,00,13.00
2015,02,17,16,01,13.10
2015,02,17,16,02,13.10
2015,02,17,16,03,13.00
2015,02,17,16,04,13.00
2015,02,17,16,05,13.00
2015,02,17,16,06,13.00
2015,02,17,16,07,12.90
2015,02,17,16,08,12.90
2015,02,17,16,09,12.90
2015,02,17,16,10,12.90
2015,02,17,16,11,12.90
2015,02,17,16,12,12.80
2015,02,17,16,13,12.80
2015,02,17,16,14,12.70
2015,02,17,16,15,12.70
2015,02,17,16,16,12.80
2015,02,17,16,17,12.80
2015,02,17,16,18,12.80
2015,02,17,16,19,12.80
2015,02,17,16,20,12.80
2015,02,17,16,21,12.70
2015,02,17,16,22,12.70
2015,02,17,16,23,12.70
2015,02,17,16,24,12.70
2015,02,17,16,25,12.70
2015,02,17,16,26,12.70
2015,02,17,16,27,12.70
2015,02,17,16,28,12.70
2015,02,17,16,29,12.70
2015,02,17,16,30,12.70
2015,02,17,16,31,12.70
2015,02,17,16,32,12.70
2015,02,17,16,33,12.70
2015,02,17,16,34,12.60
2015,02,17,16,35,12.60
2015,02,17,16,36,12.60
2015,02,17,16,37,12.60
2015,02,17,16,38,12.50
2015,02,17,16,39,12.50
2015,02,17,16,40,12.40
2015,02,17,16,41,12.40
2015,02,17,16,42,12.40
2015,02,17,16,43,12.30
2015,02,17,16,44,12.30
2015,02,17,16,45,12.30
2015,02,17,16,46,12.20
2015,02,17,16,47,12.20
2015,02,17,16,48,12.20
2015,02,17,16,49,12.10
2015,02,17,16,50,12.10
2015,02,17,16,51,12.10
2015,02,17,16,52,12.00
2015,02,17,16,53,12.00
2015,02,17,16,54,11.90
2015,02,17,16,55,11.90
2015,02,17,16,56,11.90
2015,02,17,16,57,11.80
2015,02,17,16,58,11.80
2015,02,17,16,59,11.80
2015,02,17,17,00,11.70
2015,02,17,17,01,11.70
2015,02,17,17,02,11.70
2015,02,17,17,03,11.70
2015,02,17,17,04,11.60
2015,02,17,17,05,11.60
2015,02,17,17,06,11.60
2015,02,17,17,07,11.60
2015,02,17,17,08,11.50
2015,02,17,17,09,11.50
2015,02,17,17,10,11.50
2015,02,17,17,11,11.40
2015,02,17,17,12,11.40
2015,02,17,17,13,11.40
2015,02,17,17,14,11.30
2015,02,17,17,15,11.30
2015,02,17,17,16,11.20
2015,02,17,17,17,11.20
2015,02,17,17,18,11.10
2015,02,17,17,19,11.10
2015,02,17,17,20,11.00
2015,02,17,17,21,11.00
2015,02,17,17,22,10.90
2015,02,17,17,23,10.90
2015,02,17,17,24,10.90
2015,02,17,17,25,10.80
2015,02,17,17,26,10.80
2015,02,17,17,27,10.80
2015,02,17,17,28,10.70
2015,02,17,17,29,10.70
2015,02,17,17,30,10.60
2015,02,17,17,31,10.60
2015,02,17,17,32,10.50
2015,02,17,17,33,10.50
2015,02,17,17,34,10.40
2015,02,17,17,35,10.40
2015,02,17,17,36,10.30
2015,02,17,17,37,10.30
2015,02,17,17,38,10.20
2015,02,17,17,39,10.10
2015,02,17,17,40,10.10
2015,02,17,17,41,10.00
2015,02,17,17,42,10.00
2015,02,17,17,43,9.90
2015,02,17,17,44,9.80
2015,02,17,17,45,9.80
2015,02,17,17,46,9.70
2015,02,17,17,47,9.60